Location: Montreal
(45.5000°N, 73.5833°W)
Time: 05:04:25
(UTC-05:00)

Tiangong 2 - Pass Details

Date: 16 October 2017
Orbit: 386 x 390 km, 42.8° (Epoch: 14 December)

Event Time Altitude Azimuth Distance (km) Brightness Sun altitude
Exits shadow 04:40:15 17° 104° (ESE) 1,096 4.0 -27.2°
Drops below altitude 10° 04:41:05 10° 100° (E) 1,423 4.7 -27.0°
Sets 04:43:12 0° 95° (E) 2,280 6.1 -26.7°
